Voltar ao catálogo

STARLINK-37339

AtivoComunicaçõesSSO
NORAD 68735·PAYLOAD·🇺🇸 United States

Lançado Apr 15, 2026 de Vandenberg Space Force Base

Loading…

Próximas Passagens (próximas 24 horas)

TLE

AtualizadoSource: CelesTrak SupGP

Época: Sep 15, 2026, 03:00 UTC

1 68735C 26082H   26258.12548611  .00011251  00000+0  34925-3 0  2581
2 68735  97.2848 120.4066 0001694  87.8453 337.5841 15.33433257    11

Acompanhe STARLINK-37339 em tempo real com AllMySat

Download on the App Store